Home   Weather   Darlington   Past weeks

Flag for United Kingdom Past Weather in Darlington, England, United Kingdom — Yesterday and Last 2 Weeks

45 °F

Scattered showers. Scattered clouds.

Feels Like: 38 °F
Forecast: 39 / 50 °F
Wind: 14 mph from Northeast

Location: Tees-Side

Current Time: Oct 23, 2016 at 8:56:14 AM

Latest Report: Oct 23, 2016 at 8:20 AM

Visibility: N/A

Pressure: 30.04 "Hg

Humidity: 87%

Dew Point: 41 °F

Location of DarlingtonLocation

Past Weather in Darlington — Graph


Darlington Temperature Yesterday

Maximum temperature yesterday: 55 °F (at 12:50 PM)
Minimum temperature yesterday: 46 °F (at 5:50 AM)
Average temperature yesterday: 49 °F

High & Low Weather Summary for the Past Weeks

High59 °F (Oct 8, 12:20 PM)100% (Oct 16, 7:50 AM)30.45 "Hg (Oct 16, 7:50 AM)
Low41 °F (Oct 16, 7:20 AM)59% (Oct 8, 12:20 PM)29.65 "Hg (Oct 15, 6:50 AM)
Average51 °F83%30.11 "Hg
* Reported Oct 8 7:20 AM — Oct 23 7:50 AM, Darlington, Weather by CustomWeather, © 2016

Note: Actual official high and low records may vary slightly from our data, if they occured in-between our weather recording intervals... More about our weather records


Darlington Weather History for the Previous 24 Hours

Scroll right to see more
Time TempWeatherWind HumidityBarometerVisibility
7:50 AM
Sun, Oct 23
43 °FPassing clouds.8 mph87%30.04 "HgN/A
7:20 AM45 °FPassing clouds.8 mph81%30.04 "HgN/A
6:50 AM45 °FPassing clouds.8 mph87%30.04 "HgN/A
6:20 AM45 °FPassing clouds.9 mph87%30.04 "HgN/A
5:50 AM46 °FPassing clouds.9 mph82%30.04 "HgN/A
9:50 PM
Sat, Oct 22
48 °FPassing clouds.10 mph87%30.07 "HgN/A
9:20 PM48 °FSprinkles. Passing clouds.16 mph87%30.07 "HgN/A
8:50 PM48 °FRain showers. Passing clouds.12 mph87%30.07 "Hg4 mi
8:20 PM48 °FPassing clouds.9 mph82%30.07 "HgN/A
7:20 PM46 °FPassing clouds.7 mph87%30.07 "HgN/A
6:50 PM48 °FPassing clouds.9 mph82%30.07 "HgN/A
6:20 PM48 °FPassing clouds.9 mph82%30.07 "HgN/A
5:50 PM48 °FPassing clouds.8 mph82%30.07 "HgN/A
5:20 PM48 °FPassing clouds.9 mph82%30.07 "HgN/A
4:50 PM52 °FPassing clouds.13 mph77%30.07 "HgN/A
4:20 PM50 °FPassing clouds.12 mph76%30.07 "HgN/A
3:50 PM50 °FScattered clouds.14 mph76%30.09 "HgN/A
3:20 PM50 °FPassing clouds.10 mph82%30.09 "HgN/A
2:50 PM48 °FScattered showers. Scattered clouds.10 mph82%30.09 "HgN/A
2:20 PM52 °FScattered showers. Scattered clouds.12 mph77%30.09 "HgN/A
1:50 PM52 °FPassing clouds.14 mph72%30.09 "HgN/A
1:20 PM55 °FPassing clouds.14 mph72%30.09 "HgN/A
12:50 PM55 °FPassing clouds.13 mph72%30.09 "HgN/A
12:20 PM54 °FScattered clouds.7 mph77%30.12 "HgN/A
11:50 AM52 °FScattered clouds.8 mph82%30.12 "HgN/A
11:20 AM52 °FScattered clouds.9 mph82%30.12 "HgN/A
10:50 AM52 °FPassing clouds.6 mph82%30.12 "HgN/A
10:20 AM50 °FPassing clouds.6 mph88%30.12 "HgN/A
9:50 AM48 °FScattered clouds.6 mph94%30.12 "HgN/A
9:20 AM48 °FScattered clouds.6 mph94%30.12 "HgN/A
8:50 AM48 °FScattered clouds.6 mph94%30.12 "Hg6 mi
8:20 AM46 °FScattered clouds.6 mph93%30.12 "Hg6 mi
Weather by CustomWeather, © 2016

See weather overviewHow to use our weather pages